STARLINK-34727 (65025 NORAD) Tracking and Keplerian Element Data

This shows tracking and keplerian element data for the satellite.

Feedback or suggestion? Click here.




ElementValue
Catalog65025
NameSTARLINK-34727
Epoch Orbit2317
Epoch Day354.13739289
Epoch Year2025
RAAN303.4595
Inclination53.1616
Eccentricity0.0001262
Argument of Perigee83.864
Mean Anonmoly276.2504
Mean Motion15.30205912
Decay Rate0.0002328
L11 65025U 25161L 25354.13739289 .00023280 00000+0 79551-3 0 9998
L22 65025 53.1616 303.4595 0001262 83.8640 276.2504 15.30205912 23178



Live tracking and technical data element details for STARLINK-34727 (NORAD 65025). STARLINK-34727 can be tracked NOW for your location showing map with azimuth and elevation plus other details from your city location.







IsCatalogInMostPopularTable: catalog: 65025, numindb: 3
Update: records affected: 1



GetName: 65025 STARLINK-34727

Hit Count: updated at: Tue, 10 Feb 2026 01:59:22 GMT